{"data":{"norad_id":41919,"intl_designator":"2017-003C","name":"IRIDIUM 109","alt_names":[],"object_type":"PAYLOAD","status":"ACTIVE","operator":null,"country":"US","launch_date":"2017-01-14","launch_site_code":"AFWTR","launch_vehicle":null,"mission":null,"orbit_class":"UNKNOWN","rcs_meters":2.804,"size_class":null,"mass_kg":null,"dimensions":null,"purposes":["comms"],"wikipedia_slug":null,"has_3d_model":false,"image_url":null,"decayed_at":null,"tle_current":{"epoch":"2026-05-25T03:14:50.286336Z","epoch_age_seconds":63074,"freshness":"FRESH","line1":"1 41919U 17003C   26145.13530424  .00000043  00000+0  84429-5 0  9993","line2":"2 41919  86.3951  98.1516 0002335  85.8783 274.2680 14.34217777489890","mean_motion":14.34217777,"eccentricity":0.0002335,"inclination_deg":86.3951,"raan_deg":98.1516,"arg_perigee_deg":85.8783,"mean_anomaly_deg":274.268,"bstar":8.4429e-6,"rev_number":48989,"period_min":100.40316213428,"perigee_km":775.99618429624,"apogee_km":779.33794479439,"semimajor_km":7155.8040645453,"source":"CELESTRAK","updated_at":"2026-05-25T13:38:14.762931Z"}}}